Date,TemperatureHighF,TemperatureAvgF,TemperatureLowF,DewpointHighF,DewpointAvgF,DewpointLowF,HumidityHigh,HumidityAvg,HumidityLow,PressureMaxIn,PressureMinIn,WindSpeedMaxMPH,WindSpeedAvgMPH,GustSpeedMaxMPH,PrecipitationSumIn
2013-1-1,43,40,32,7,4,-2,24,22,20,29.97,29.82,17,5,18,0.00
2013-1-2,36,30,25,1,-4,-9,24,23,21,30.18,23.42,15,4,115,0.00
2013-1-3,38,30,25,1,-3,-6,24,23,21,30.21,30.06,10,4,175,0.00
2013-1-4,39,35,29,3,0,-5,23,22,21,30.12,29.97,22,7,22,0.00
2013-1-5,45,36,29,6,1,-4,23,22,20,30.30,30.03,15,4,60,6.49
2013-1-6,49,43,33,20,8,0,40,24,19,30.21,29.97,10,3,11,0.00
2013-1-7,50,40,30,10,5,-2,31,23,19,30.39,23.42,12,3,170,28.15
2013-1-8,52,40,30,12,7,-1,33,25,18,30.44,30.30,15,2,15,0.00
2013-1-9,53,45,35,17,12,7,31,26,21,30.39,30.18,14,4,17,0.00
2013-1-10,53,46,37,11,7,1,100,20,18,30.50,24.42,15,4,175,12.58
2013-1-11,126,46,37,100,17,1,100,30,21,30.50,30.03,12,4,13,0.00
2013-1-12,53,50,48,37,28,25,58,43,36,30.18,30.00,8,2,8,0.00
2013-1-13,54,50,45,39,28,22,70,44,34,30.15,30.00,10,3,12,0.00
2013-1-14,61,53,42,55,31,10,84,47,18,30.24,29.94,11,3,130,28.15
2013-1-15,43,40,32,20,10,0,39,29,23,30.33,21.23,12,5,162,25.74
2013-1-16,47,42,39,24,20,13,42,40,35,30.21,29.79,18,5,18,0.00
2013-1-17,46,42,32,20,11,0,40,29,20,30.09,29.91,132,3,132,0.00
2013-1-18,39,32,26,11,-1,-9,31,24,20,30.53,29.97,20,4,143,21.18
2013-1-19,54,41,28,13,5,-5,29,22,18,30.41,29.94,21,5,22,65.28
2013-1-20,59,48,34,14,8,-1,23,19,17,30.03,29.71,24,8,24,0.00
2013-1-21,36,32,28,9,-1,-7,40,24,20,30.12,29.82,10,3,12,0.00
2013-1-22,28,22,14,2,-11,-16,32,23,21,30.24,29.82,19,7,19,0.00
2013-1-23,25,16,11,-9,-15,-19,24,23,22,30.27,30.18,17,5,17,0.00
2013-1-24,28,19,10,-7,-13,-19,24,23,21,30.41,30.12,15,5,20,0.00
2013-1-25,28,19,13,-3,-11,-17,34,25,21,30.41,30.06,13,3,13,0.00
2013-1-26,32,22,12,-1,-8,-13,36,27,20,30.39,30.06,15,4,15,25.77
2013-1-27,37,29,15,2,-4,-15,26,23,21,30.53,30.39,12,3,13,0.00
2013-1-28,40,32,0,18,5,-11,40,32,22,30.47,30.00,7,2,8,0.00
2013-1-29,56,46,32,25,19,0,40,35,23,30.15,20.29,7,2,51,0.00
2013-1-30,59,52,46,52,35,23,84,54,35,30.06,29.44,26,6,26,0.00
2013-1-31,63,47,30,57,17,-6,100,33,19,29.82,29.12,30,10,232,9.94
2013-2-1,34,30,24,0,-5,-10,23,21,20,30.27,29.82,20,7,58,2.10
2013-2-2,34,27,19,0,-7,-13,29,22,20,30.33,30.06,17,5,17,2.80
2013-2-3,36,30,25,5,0,-7,36,27,22,30.06,29.79,12,3,12,0.00
2013-2-4,33,28,23,6,-4,-9,37,24,21,30.06,29.82,18,6,60,0.00
2013-2-5,39,36,28,16,11,-5,39,36,23,29.97,29.85,10,2,11,0.00
2013-2-6,44,37,29,15,6,-4,40,28,20,30.36,29.91,15,4,17,28.16
2013-2-7,42,33,24,12,-1,-9,29,23,21,30.50,30.24,11,4,11,0.00
2013-2-8,47,42,35,24,19,12,41,38,29,30.27,29.59,30,10,35,0.00
2013-2-9,37,32,23,16,2,-10,44,29,21,30.33,29.71,172,4,172,0.00
2013-2-10,95,31,18,78,0,-14,100,26,9,30.50,30.30,9,2,158,0.10
2013-2-11,126,48,32,78,29,0,100,49,24,30.33,29.65,19,4,19,0.10
2013-2-12,78,44,32,78,8,-1,100,24,19,30.00,29.71,22,6,24,7.41
2013-2-13,78,33,30,78,0,-3,100,24,23,29.94,29.91,3,2,3,0.05
2013-3-28,78,40,20,78,9,-12,100,29,19,30.09,0.00,118,5,802,179.56
2013-3-29,78,49,32,78,9,0,100,20,16,30.15,30.06,13,4,13,0.00
2013-3-30,63,48,38,17,10,3,30,21,16,30.18,30.06,13,4,14,0.00
2013-3-31,56,51,42,37,21,0,51,32,1,30.09,29.68,18,5,175,28.17
2013-4-1,68,55,40,34,20,4,47,27,17,29.91,29.59,17,6,24,0.00
2013-4-2,48,40,31,8,3,-5,23,21,19,30.09,29.88,18,6,232,16.11
2013-4-3,50,42,33,9,4,-1,23,21,19,30.30,30.06,20,7,137,7.71
2013-4-4,57,41,29,12,4,-7,23,21,17,30.41,30.09,15,4,18,0.00
2013-4-5,62,49,40,23,12,5,38,23,16,30.09,29.71,14,4,172,20.17
2013-4-6,53,43,37,11,5,1,23,20,18,30.33,29.97,15,6,19,0.00
2013-4-7,56,52,32,24,16,0,32,24,20,30.30,30.00,21,7,133,25.61
2013-4-8,71,59,51,30,22,16,36,24,17,30.09,29.94,13,4,15,0.00
2013-4-9,87,71,57,31,27,18,36,21,13,30.00,29.91,20,5,232,7.43
2013-4-10,69,62,52,36,23,15,38,23,17,29.94,29.79,18,6,20,0.00
2013-4-11,68,58,51,50,31,24,54,36,29,30.00,29.76,16,6,20,0.00
2013-4-12,51,50,49,44,35,25,81,56,37,29.97,29.65,26,10,90,29.09
2013-4-13,63,52,-21,31,22,-26,77,33,16,29.97,29.71,13,5,122,10.16
2013-4-14,66,58,49,29,17,9,38,20,15,30.18,29.97,19,5,20,0.00
2013-4-15,54,50,47,24,14,7,36,23,19,30.33,30.18,14,5,16,0.00
2013-4-16,65,58,32,33,26,0,37,30,23,30.36,30.12,20,6,127,9.97
2013-4-17,64,60,32,35,24,0,35,26,18,30.27,30.06,149,4,172,15.32
2013-4-18,62,55,50,39,25,11,45,31,20,30.33,30.06,12,4,115,0.00
2013-4-19,78,66,59,57,42,-30,82,44,1,30.12,29.68,20,7,21,28.26
2013-4-20,69,57,32,41,19,0,38,24,16,30.27,29.65,18,7,105,15.07
2013-4-21,50,46,38,10,7,2,21,20,19,30.59,30.27,14,6,57,7.71
2013-4-22,50,46,43,18,12,4,31,24,20,30.62,30.41,22,9,142,12.76
2013-4-23,52,48,45,24,19,15,38,31,27,30.44,30.06,25,9,27,0.00
2013-4-24,78,54,45,34,24,0,39,32,21,30.09,29.82,16,5,232,0.00
2013-4-25,66,55,47,32,20,12,36,25,15,30.27,29.88,13,4,14,0.00
2013-4-26,68,55,42,22,16,10,29,22,17,30.39,30.24,13,4,13,0.00
2013-4-27,64,56,47,20,14,10,27,20,16,30.41,30.30,12,4,13,0.00
2013-4-28,66,59,49,25,19,11,31,21,17,30.30,30.18,13,4,17,0.00
2013-4-29,57,56,55,31,27,22,37,33,26,30.21,30.12,19,5,19,0.00
2013-4-30,62,56,51,29,23,17,36,28,22,30.30,30.12,133,6,133,1.52
2013-5-1,59,54,50,26,22,17,36,29,22,30.47,30.30,17,6,17,1.92
2013-5-2,65,57,51,26,21,14,36,25,18,30.44,30.30,10,4,11,1.92
2013-5-3,57,54,51,28,21,15,36,27,20,30.44,30.30,21,7,21,1.92
2013-5-4,59,54,49,29,21,17,38,28,22,30.33,30.24,15,5,17,1.92
2013-5-5,56,52,49,26,20,16,36,28,22,30.30,30.18,18,7,21,0.00
2013-5-6,58,55,52,32,27,22,39,34,26,30.24,30.12,15,6,175,14.16
2013-5-7,63,59,56,51,36,29,79,44,32,30.18,30.06,15,6,15,0.00
2013-5-8,73,64,61,61,38,-10,82,41,4,30.06,29.94,21,5,21,0.00
2013-5-9,76,66,62,41,32,-12,41,29,4,29.97,29.88,11,3,13,12.22
2013-5-10,84,68,60,38,32,-11,36,27,4,29.97,29.85,13,4,13,0.00
2013-5-11,74,69,66,42,38,1,36,32,6,29.91,29.68,13,3,15,1.79
2013-5-12,72,64,52,40,21,10,35,19,15,29.94,29.71,23,7,24,0.00
2013-5-13,63,53,42,16,11,4,23,18,16,30.09,29.94,13,5,17,15.33
2013-5-14,66,53,41,20,12,0,28,19,2,30.15,30.00,13,4,135,2.20
2013-5-15,71,61,50,35,25,10,33,25,18,30.09,29.68,12,3,15,0.00
2013-5-16,78,68,61,39,30,22,35,25,15,29.82,29.68,10,2,13,0.00
2013-5-17,79,67,56,36,23,12,31,19,13,30.18,29.82,11,3,12,0.00
2013-5-18,67,61,56,35,28,18,36,29,22,30.30,30.18,11,3,12,0.00
2013-5-19,66,64,61,51,43,33,59,48,34,30.30,30.12,13,4,14,0.00
2013-5-20,79,70,65,68,46,33,78,44,22,30.18,29.94,8,2,8,0.00
2013-5-21,89,77,72,50,40,-19,41,27,2,29.97,29.82,10,3,10,0.00
2013-5-22,88,76,32,46,41,-20,34,29,2,29.91,29.82,11,2,172,0.17
2013-5-23,83,75,71,44,40,35,34,29,21,29.91,29.74,17,4,51,0.00
2013-5-24,74,63,50,43,32,-20,37,32,2,29.94,29.65,17,4,172,10.19
2013-5-25,62,55,48,27,19,10,37,26,17,29.97,29.88,26,7,26,0.00
2013-5-26,73,64,51,24,19,10,21,17,15,30.18,29.97,18,6,19,0.00
2013-5-27,78,63,45,27,20,8,29,19,15,30.24,30.09,172,3,172,0.00
2013-5-28,74,64,52,40,29,0,100,28,16,30.21,30.06,8,1,137,7.70
2013-5-29,88,75,65,44,37,-20,38,27,2,30.09,30.00,8,2,172,20.79
2013-5-30,100,82,32,42,37,0,31,21,13,30.12,30.03,11,3,232,4.61
2013-5-31,97,82,73,43,38,34,32,22,13,30.12,30.00,10,3,12,0.00
2013-6-1,94,80,72,43,38,34,32,23,14,30.03,29.91,13,4,13,0.00
2013-6-2,88,79,73,46,40,35,33,25,18,29.94,29.76,13,4,15,0.00
2013-6-3,81,75,71,51,41,-18,42,31,2,29.85,29.76,10,2,10,19.99
2013-6-4,81,69,59,45,24,-14,35,19,3,30.09,29.85,11,3,232,0.00
2013-6-5,70,66,58,37,26,16,35,23,17,30.18,30.06,11,3,11,0.00
2013-6-6,72,68,66,51,37,-14,52,33,3,30.12,29.94,13,4,16,0.40
2013-6-7,74,70,67,68,56,39,82,64,35,29.94,29.53,14,4,232,2.57
2013-6-8,83,73,66,66,39,-14,81,34,3,30.03,29.47,18,3,18,0.00
2013-6-9,84,77,67,42,33,27,32,21,14,30.15,30.03,9,2,10,2.49
2013-6-10,75,73,68,68,44,-14,79,40,3,30.15,29.79,9,2,11,0.00
2013-6-11,88,79,32,70,42,-19,79,35,2,29.79,23.15,12,4,115,2.39
2013-6-12,87,75,67,32,29,25,24,19,13,29.85,29.71,17,4,17,0.00
2013-6-13,78,72,67,48,25,-20,37,22,2,29.85,29.35,10,3,11,0.00
2013-6-14,79,66,59,36,22,-12,35,22,4,29.85,29.44,15,4,23,0.00
2013-6-15,88,76,64,37,30,23,34,20,13,30.00,29.85,10,3,10,0.00
2013-6-16,90,79,66,40,34,28,31,21,15,29.97,29.79,18,4,18,0.00
2013-6-17,94,79,70,42,34,-20,33,22,2,29.94,29.82,12,3,13,0.00
2013-6-18,81,73,68,50,34,-13,44,28,3,29.91,29.76,14,2,14,0.00
2013-6-19,76,71,61,38,16,-14,30,15,3,30.15,29.82,14,4,27,0.00
2013-6-20,82,71,60,35,29,23,34,22,14,30.27,30.12,9,2,11,0.00
2013-6-21,82,71,60,36,30,23,34,22,14,30.30,30.24,9,2,59,578.62
2013-6-22,87,73,64,37,30,-20,34,22,2,30.24,30.12,10,2,10,1.92
2013-6-23,91,80,67,44,36,-17,31,21,2,30.18,30.06,11,3,11,0.00
2013-6-24,101,85,74,56,28,-17,39,17,2,30.06,29.94,12,3,15,11.25
2013-6-25,99,84,71,44,38,12,32,20,8,30.00,29.82,10,3,14,18.00
2013-6-26,99,83,73,47,37,-17,32,20,2,29.85,29.76,11,4,12,18.00
2013-6-27,92,82,76,49,13,-18,32,12,2,29.79,29.59,17,3,17,15.75
2013-6-28,94,82,74,46,29,-18,31,19,2,29.59,29.47,11,3,12,0.00
2013-6-29,89,79,74,46,22,-20,31,18,2,29.68,29.47,9,2,11,0.00
2013-6-30,87,80,75,46,8,-17,31,12,2,29.88,29.68,8,2,13,0.00
2013-7-1,90,80,77,50,1,-18,32,9,2,30.03,29.88,10,2,11,0.00
2013-7-2,88,80,77,48,16,-18,31,15,2,30.18,30.00,9,2,11,2.54
2013-7-3,89,80,75,61,16,-19,45,15,2,30.24,30.15,9,2,10,0.42
2013-7-4,93,83,78,47,20,-17,30,15,2,30.24,30.15,8,3,32,2.96
2013-7-5,97,85,32,46,33,-18,31,19,2,30.24,30.06,115,3,115,0.04
2013-7-6,102,88,78,45,26,-17,30,14,2,30.15,30.00,10,3,13,0.00
2013-7-7,102,91,0,44,37,-17,22,16,2,30.06,29.94,11,4,11,0.00
2013-7-8,97,82,73,42,38,33,29,22,14,30.06,29.94,10,3,13,0.00
2013-7-9,98,82,73,46,27,-20,31,17,2,30.06,29.97,8,2,11,0.00
2013-7-10,95,84,76,64,38,-18,53,25,2,30.03,29.82,12,2,14,0.00
2013-7-11,92,81,77,46,34,-17,30,22,2,29.91,29.82,7,2,11,10.56
2013-7-12,79,76,75,52,22,-19,42,20,2,30.03,29.88,19,7,20,0.00
2013-7-13,88,81,77,76,42,-17,80,33,2,30.27,30.00,11,2,11,0.00
2013-7-14,96,87,79,48,35,-17,30,19,2,30.30,30.21,8,2,11,0.00
2013-7-15,104,88,77,45,32,-17,31,17,2,30.24,30.06,8,3,10,0.00
2013-7-16,100,87,78,45,39,30,29,19,12,30.18,30.09,9,2,10,0.00
2013-7-17,95,86,77,43,39,35,29,20,14,30.15,30.06,9,2,10,2.87
2013-7-18,106,89,78,46,41,36,26,19,11,30.06,29.94,10,2,10,0.00
2013-7-19,105,91,82,46,39,-14,28,18,2,29.97,29.79,13,4,17,2.37
2013-7-20,101,88,78,47,41,-15,29,20,2,29.82,29.71,16,4,16,2.37
2013-7-21,92,81,75,46,21,-18,30,16,2,29.94,29.82,13,3,15,0.00
2013-7-22,85,81,32,49,-4,-17,100,7,2,29.94,29.76,12,3,175,550.40
2013-7-23,94,83,77,69,27,-18,100,20,2,29.79,29.56,9,2,115,5.02
2013-7-24,96,82,73,45,38,31,32,22,14,29.88,29.59,10,3,10,0.00
2013-7-25,73,68,66,38,33,29,33,28,21,30.00,29.88,22,6,115,0.00
2013-7-26,86,74,67,42,37,32,33,26,16,30.03,29.94,9,3,11,0.00
2013-7-27,88,76,68,44,35,-20,33,24,2,30.06,29.94,12,2,12,15.23
2013-7-28,84,79,70,47,39,-18,33,25,2,29.97,29.91,8,2,10,0.00
2013-7-29,81,74,72,61,34,-20,54,30,2,29.97,29.91,3,0,3,0.00
2013-8-16,91,74,65,52,28,-20,46,19,2,30.18,29.82,8,1,12,0.00
2013-8-17,82,74,62,37,31,26,34,21,17,30.27,30.18,9,1,9,0.00
2013-8-18,86,72,0,44,34,0,26,21,21,30.21,30.09,12,4,14,0.00
2013-8-19,86,84,66,44,41,31,30,22,16,30.18,30.00,8,2,10,0.00
2013-8-20,91,85,32,67,42,0,100,23,17,30.09,30.00,9,2,115,5.14
2013-8-21,98,82,73,46,31,-20,31,20,2,30.15,30.06,8,2,8,0.00
2013-8-22,88,79,74,46,32,-20,32,22,2,30.06,29.85,9,2,14,0.00
2013-8-23,86,77,71,41,16,-20,27,14,2,30.06,29.82,8,2,10,0.00
2013-8-24,76,71,63,41,30,-14,35,23,3,30.30,30.06,13,4,16,0.00
2013-8-25,91,78,63,36,22,-20,34,14,2,30.36,30.24,10,2,11,0.00
2013-8-26,91,75,66,38,33,20,30,22,15,30.24,29.91,13,4,13,0.00
2013-8-27,94,80,72,42,32,-20,32,20,2,29.91,29.82,11,3,13,0.00
2013-8-28,90,77,71,45,22,-20,31,19,2,29.88,29.79,8,1,9,0.00
2013-8-29,78,75,72,54,27,-20,44,23,2,30.00,29.85,18,5,18,0.00
2013-8-30,90,78,71,44,40,36,32,27,18,30.00,29.82,10,2,11,0.00
2013-8-31,94,80,73,47,34,-20,31,23,2,29.88,29.76,10,3,12,0.00
2013-9-1,91,82,78,48,14,-17,32,13,2,29.85,29.76,8,2,8,0.00
2013-9-2,84,80,75,54,8,-16,39,13,2,29.79,29.71,9,0,9,0.00
2013-9-3,89,76,32,68,33,-16,61,22,2,29.88,22.06,10,2,115,0.12
2013-9-4,89,74,32,37,31,0,34,21,13,30.00,29.85,10,3,115,0.01
2013-9-5,88,72,63,37,30,19,33,22,15,30.09,29.94,10,3,10,0.00
2013-9-6,75,65,56,28,23,17,27,20,16,30.21,30.09,13,3,15,0.00
2013-9-7,85,68,53,32,27,21,36,22,13,30.12,29.91,8,2,8,0.00
2013-9-8,90,80,66,39,31,20,31,18,15,30.03,29.79,12,4,15,0.00
2013-9-9,76,70,65,36,27,20,29,20,15,30.24,30.03,12,4,15,5.14
2013-9-10,80,73,70,46,40,35,31,30,27,30.18,30.03,13,2,13,0.00
2013-9-11,77,76,76,43,-5,-18,30,8,2,30.09,29.97,9,2,12,0.00
2013-9-12,76,25,0,0,-6,-18,2,1,2,30.00,29.71,9,2,11,0.00
2013-9-13,0,0,0,0,0,0,0,0,100,29.85,29.62,13,3,13,0.00
2013-9-14,76,47,0,27,17,0,31,15,15,30.09,29.82,10,3,12,0.00
2013-9-15,74,64,50,32,26,22,35,24,16,30.21,30.06,9,3,10,0.00
2013-9-16,75,66,60,38,33,13,33,30,13,30.18,30.00,9,2,9,0.00
2013-9-17,66,58,50,30,20,15,31,23,18,30.39,30.18,20,5,22,0.00
2013-9-18,74,60,48,27,24,21,36,25,16,30.33,30.18,10,2,11,0.00
2013-9-19,81,64,51,33,26,-12,36,25,4,30.18,30.06,11,2,11,0.00
2013-9-20,83,67,56,36,29,-14,35,26,3,30.09,29.94,9,2,12,0.00
2013-9-21,81,70,59,50,16,-20,41,18,2,30.00,29.65,12,2,15,0.00
2013-9-22,76,68,56,53,23,-14,51,19,3,29.91,29.65,12,4,13,0.00
2013-9-23,73,60,49,25,21,17,35,23,16,30.03,29.88,10,3,12,28.23
2013-9-24,78,61,48,26,23,-30,37,24,1,30.03,29.88,172,2,172,7.48
2013-9-25,76,62,51,31,27,21,36,26,18,29.94,29.85,9,2,9,0.00
2013-9-26,73,63,55,38,27,-12,36,28,4,30.06,29.88,11,2,12,0.00
2013-9-27,70,64,32,32,28,-12,35,26,4,30.24,30.06,13,4,148,10.21
2013-9-28,72,67,61,35,30,27,33,26,21,30.27,30.18,13,5,15,0.00
2013-9-29,70,66,57,34,26,-12,34,23,4,30.18,30.03,12,4,14,0.00
2013-9-30,71,63,32,33,26,-12,36,27,4,30.06,23.42,11,2,164,25.66
2013-10-1,86,69,59,36,20,-12,29,18,4,30.00,29.88,8,2,8,0.00
2013-10-2,89,74,64,37,30,-14,34,22,3,29.97,29.88,10,2,13,0.00
2013-10-3,80,71,64,38,30,-14,33,23,3,30.09,29.97,6,1,6,28.24
2013-10-4,88,74,64,41,31,-20,34,23,2,30.06,29.94,8,2,9,0.00
2013-10-5,72,71,69,52,19,-14,49,22,1,30.06,29.94,10,3,76,10.24
2013-10-6,78,75,72,69,34,-20,83,36,2,30.03,29.94,10,3,10,0.00
2013-10-7,81,74,63,64,40,-18,61,35,2,29.97,29.76,17,3,19,0.00
2013-10-8,71,62,54,33,24,19,35,24,17,30.27,29.94,13,4,15,0.00
2013-10-9,64,62,61,28,26,21,28,25,21,30.30,30.18,23,11,115,0.00
2013-10-10,69,64,60,46,22,-11,44,24,4,30.21,29.97,27,12,28,0.00
2013-10-11,70,68,32,54,15,-11,57,20,4,30.03,29.91,144,12,144,16.46
2013-10-12,69,65,63,38,33,-12,36,30,4,30.21,29.97,29,12,29,0.40
2013-10-13,66,62,60,35,28,26,34,28,24,30.33,30.18,20,9,24,0.00
2013-10-14,65,60,32,32,28,0,37,30,24,30.30,30.18,157,4,172,28.24
2013-10-15,68,62,53,41,28,-12,49,30,4,30.21,30.06,12,3,13,0.00
2013-10-16,68,66,32,38,25,-12,35,26,4,30.06,29.88,9,3,150,5.18
2013-10-17,74,69,65,40,15,-14,36,18,3,29.94,29.68,8,2,10,0.00
2013-10-18,71,63,52,40,22,-14,34,22,3,29.97,29.65,15,5,16,0.00
2013-10-19,82,57,32,36,26,0,37,30,22,29.97,20.02,8,1,175,29.11
2013-10-20,68,58,47,28,18,-5,27,20,6,30.06,29.74,11,3,13,27.99
2013-10-21,71,56,32,27,20,0,35,25,17,30.15,22.74,10,2,154,7.74
2013-10-22,74,60,51,32,24,17,36,26,16,29.97,29.74,14,3,14,0.00
2013-10-23,55,51,45,28,20,13,36,29,24,29.79,29.59,13,3,14,0.00
2013-10-24,57,47,39,19,12,4,37,26,17,30.03,29.74,14,4,16,0.00
2013-10-25,59,46,38,17,11,7,30,24,17,30.21,30.00,19,4,19,9.36
2013-10-26,59,48,36,16,12,9,35,24,17,30.21,29.91,18,4,18,0.00
2013-10-27,63,54,43,20,14,6,24,20,17,30.09,29.91,13,4,15,0.00
2013-10-28,68,50,37,22,14,4,31,23,16,30.27,30.06,13,1,13,10.03
2013-10-29,58,53,46,25,19,14,33,26,22,30.36,30.24,15,5,15,10.24
2013-10-30,61,52,44,31,23,-10,38,32,7,30.33,30.15,4,0,232,29.90
2013-10-31,70,64,56,36,14,-12,34,20,4,30.21,29.82,15,3,15,0.00
2013-11-1,71,67,63,47,24,-12,46,25,4,29.82,29.59,21,4,21,0.00
2013-11-2,71,63,32,65,32,-12,85,35,4,29.76,29.59,8,2,149,28.25
2013-11-3,56,41,36,22,5,1,35,22,19,30.39,29.74,13,4,13,0.00
2013-11-4,49,42,34,16,6,0,28,22,19,30.59,30.36,14,5,16,25.68
2013-11-5,59,52,43,25,18,10,36,26,22,30.59,30.44,11,4,122,29.74
2013-11-6,65,56,41,35,18,-12,39,26,4,30.47,30.06,11,2,11,28.00
2013-11-7,69,60,42,48,8,-12,46,18,4,30.09,29.74,16,4,16,0.00
2013-11-8,53,45,37,16,10,4,32,24,18,30.21,29.91,15,5,19,0.00
2013-11-9,55,45,34,13,9,6,31,24,17,30.30,30.00,11,4,11,0.00
2013-11-10,62,53,47,15,11,7,24,18,16,30.06,29.82,21,7,28,0.00
2013-11-11,59,50,40,15,10,4,21,19,17,30.21,29.94,13,5,15,0.00
2013-11-12,51,40,31,14,6,-3,40,24,21,30.27,29.91,19,6,20,0.00
2013-11-13,43,34,27,5,-1,-6,23,22,20,30.36,30.24,16,4,232,0.00
2013-11-14,58,43,30,14,5,-3,23,20,17,30.30,30.15,17,6,18,0.00
2013-11-15,60,46,37,17,11,2,32,25,17,30.27,30.15,11,3,12,0.00
2013-11-16,86,48,41,44,19,9,36,31,23,30.33,30.18,6,1,6,5.14
2013-11-17,67,64,51,58,11,-12,81,24,4,30.24,29.76,10,2,10,0.00
2013-11-18,70,62,51,66,27,-12,91,35,4,29.79,29.59,17,6,58,10.23
2013-11-19,52,45,36,11,6,1,22,20,18,30.33,29.76,20,6,20,3.84
2013-11-20,46,39,32,7,3,-1,23,21,20,30.56,30.30,15,5,18,14.64
2013-11-21,54,48,35,19,13,0,29,24,20,30.56,30.39,13,3,14,0.00
2013-11-22,61,55,32,30,21,-11,36,28,6,30.39,23.42,13,3,149,28.25
2013-11-23,58,45,33,20,5,-11,27,20,6,30.03,29.88,17,6,22,5.13
2013-11-24,34,28,23,0,-7,-10,23,21,20,30.41,25.22,148,9,165,5.14
2013-11-25,40,30,20,3,-4,-12,25,22,20,30.50,30.30,10,4,12,0.00
2013-11-26,62,43,32,54,11,-10,75,28,7,30.33,29.74,22,4,24,10.04
2013-11-27,68,53,35,62,20,-13,84,39,5,29.74,29.32,25,8,32,0.00
2013-11-28,39,34,29,3,-1,-4,23,22,21,30.47,29.76,24,6,232,28.05
2013-11-29,44,34,26,6,0,-6,24,22,19,30.68,30.41,8,2,12,0.00
2013-11-30,46,37,27,16,3,-6,30,23,21,30.68,30.30,115,4,117,26.77
2013-12-1,55,46,41,16,12,0,29,25,15,30.33,29.97,8,2,8,0.00
2013-12-2,55,42,36,15,10,7,34,28,20,29.97,29.82,7,0,7,0.00
2013-12-3,58,46,37,23,4,-12,35,19,7,29.97,29.82,6,1,132,10.24
2013-12-4,54,47,37,24,8,-12,35,22,7,30.12,29.97,6,1,8,0.00
2013-12-5,65,59,54,48,-2,-12,63,11,4,30.09,29.91,11,3,12,0.00
2013-12-6,62,55,43,57,20,-12,83,38,6,30.09,29.82,17,5,17,0.00
2013-12-7,44,39,32,13,-2,-12,29,19,9,30.47,30.06,14,5,15,15.07
2013-12-8,48,37,28,23,-5,-14,40,18,8,30.53,30.30,15,5,16,0.00
2013-12-9,57,49,32,47,6,-12,70,23,7,30.27,29.94,16,6,150,10.25
2013-12-10,42,37,30,21,-11,-16,44,13,10,30.15,29.85,11,4,12,0.00
2013-12-11,37,30,24,4,-4,-19,100,24,12,30.36,30.15,15,4,60,0.00
2013-12-12,32,25,19,1,-5,-12,33,26,21,30.36,30.18,17,4,18,0.00
2013-12-13,39,29,18,3,-4,-12,25,23,21,30.30,30.12,17,4,17,0.00
2013-12-14,60,42,29,53,4,-12,82,25,6,30.41,29.68,23,8,26,0.00
2013-12-15,60,39,32,52,5,-13,77,25,10,29.85,29.53,19,7,24,0.00
2013-12-16,34,29,21,1,-4,-12,25,23,21,30.24,29.82,23,5,129,0.00
2013-12-17,48,35,24,20,-5,-16,41,19,8,30.21,29.88,12,3,133,10.05
2013-12-18,40,32,26,6,-1,-19,34,24,12,30.21,29.88,13,5,232,0.00
2013-12-19,28,27,27,1,-2,-5,32,27,23,30.18,30.15,7,3,7,0.00